Time,TemperatureF,DewpointF,PressureIn,WindDirection,WindDirectionDegrees,WindSpeedMPH,WindSpeedGustMPH,Humidity,HourlyPrecipIn,Conditions,Clouds,dailyrainin,SoftwareType,DateUTC
2013-02-06 11:31:00,31.5,20.0,29.85,SSW,202,3.7,-999.0,62,-99.99,,,0.00,Acu-Link.com,2013-02-06 16:31:00,
2013-02-06 11:46:00,32.2,19.1,29.85,SSW,202,3.2,-999.0,58,-99.99,,,0.00,Acu-Link.com,2013-02-06 16:46:00,
2013-02-06 12:01:00,32.4,18.9,29.85,SSW,202,2.7,-999.0,57,-99.99,,,0.00,Acu-Link.com,2013-02-06 17:01:00,
2013-02-06 12:17:00,31.8,17.5,29.85,SSW,202,4.2,-999.0,55,-99.99,,,0.00,Acu-Link.com,2013-02-06 17:17:00,
2013-02-06 12:32:00,32.7,18.3,29.86,SSW,202,1.7,-999.0,55,-99.99,,,0.00,Acu-Link.com,2013-02-06 17:32:00,
2013-02-06 12:47:00,31.5,17.2,29.86,SSW,202,1.1,-999.0,55,-99.99,,,0.00,Acu-Link.com,2013-02-06 17:47:00,
2013-02-06 13:02:00,31.6,18.5,29.87,West,270,1.7,-999.0,58,-99.99,,,0.00,Acu-Link.com,2013-02-06 18:02:00,
2013-02-06 13:17:00,31.5,19.2,29.87,West,270,1.1,-999.0,60,-99.99,,,0.00,Acu-Link.com,2013-02-06 18:17:00,
2013-02-06 13:32:00,30.9,18.3,29.87,SSE,157,1.7,-999.0,59,-99.99,,,0.00,Acu-Link.com,2013-02-06 18:32:00,
2013-02-06 13:47:00,30.9,18.3,29.87,SSW,202,2.7,-999.0,59,-99.99,,,0.00,Acu-Link.com,2013-02-06 18:47:00,
2013-02-06 14:02:00,31.5,16.4,29.87,SE,135,3.7,-999.0,53,-99.99,,,0.00,Acu-Link.com,2013-02-06 19:02:00,
2013-02-06 14:17:00,32.2,16.1,29.87,SSW,202,2.7,-999.0,51,-99.99,,,0.00,Acu-Link.com,2013-02-06 19:17:00,
2013-02-06 14:33:00,32.0,13.6,29.89,SSW,202,3.2,-999.0,46,-99.99,,,0.00,Acu-Link.com,2013-02-06 19:33:00,
2013-02-06 14:48:00,31.3,13.4,29.89,SSW,202,0.0,-999.0,47,-99.99,,,0.00,Acu-Link.com,2013-02-06 19:48:00,
2013-02-06 15:03:00,30.7,12.4,29.89,SW,225,3.7,-999.0,46,-99.99,,,0.00,Acu-Link.com,2013-02-06 20:03:00,
2013-02-06 15:18:00,30.4,12.6,29.90,SSW,202,1.7,-999.0,47,-99.99,,,0.00,Acu-Link.com,2013-02-06 20:18:00,
2013-02-06 15:33:00,30.0,11.3,29.92,SSW,202,0.0,-999.0,45,-99.99,,,0.00,Acu-Link.com,2013-02-06 20:33:00,
2013-02-06 15:48:00,29.3,8.6,29.93,SSW,202,1.7,-999.0,41,-99.99,,,0.00,Acu-Link.com,2013-02-06 20:48:00,
2013-02-06 16:03:00,28.9,8.7,29.94,SSW,202,3.7,-999.0,42,-99.99,,,0.00,Acu-Link.com,2013-02-06 21:03:00,
2013-02-06 16:18:00,28.8,8.6,29.94,SSW,202,3.2,-999.0,42,-99.99,,,0.00,Acu-Link.com,2013-02-06 21:18:00,
2013-02-06 16:33:00,28.0,9.4,29.95,SSW,202,1.7,-999.0,45,-99.99,,,0.00,Acu-Link.com,2013-02-06 21:33:00,
2013-02-06 16:49:00,27.1,8.6,29.96,SSW,202,0.0,-999.0,45,-99.99,,,0.00,Acu-Link.com,2013-02-06 21:49:00,
2013-02-06 17:04:00,26.4,9.4,29.96,SSW,202,0.0,-999.0,48,-99.99,,,0.00,Acu-Link.com,2013-02-06 22:04:00,
2013-02-06 17:19:00,25.7,11.4,29.98,SSW,202,0.0,-999.0,54,-99.99,,,0.00,Acu-Link.com,2013-02-06 22:19:00,
2013-02-06 17:34:00,25.0,11.1,29.99,SSW,202,0.0,-999.0,55,-99.99,,,0.00,Acu-Link.com,2013-02-06 22:34:00,
2013-02-06 17:49:00,24.4,11.4,30.00,SSW,202,0.0,-999.0,57,-99.99,,,0.00,Acu-Link.com,2013-02-06 22:49:00,
2013-02-06 18:04:00,23.7,10.7,30.01,SSW,202,0.0,-999.0,57,-99.99,,,0.00,Acu-Link.com,2013-02-06 23:04:00,
2013-02-06 18:20:00,23.2,9.9,30.02,SSW,202,1.1,-999.0,56,-99.99,,,0.00,Acu-Link.com,2013-02-06 23:20:00,
2013-02-06 18:35:00,23.0,10.1,30.03,SSW,202,0.0,-999.0,57,-99.99,,,0.00,Acu-Link.com,2013-02-06 23:35:00,
2013-02-06 18:50:00,22.8,10.3,30.04,SSW,202,0.0,-999.0,58,-99.99,,,0.00,Acu-Link.com,2013-02-06 23:50:00,
2013-02-06 19:05:00,22.8,9.1,30.05,SSW,202,0.0,-999.0,55,-99.99,,,0.00,Acu-Link.com,2013-02-07 00:05:00,
2013-02-06 19:20:00,23.0,9.7,30.06,SSW,202,2.7,-999.0,56,-99.99,,,0.00,Acu-Link.com,2013-02-07 00:20:00,
2013-02-06 19:35:00,22.6,9.7,30.07,SSW,202,0.0,-999.0,57,-99.99,,,0.00,Acu-Link.com,2013-02-07 00:35:00,
2013-02-06 19:50:00,22.1,10.0,30.07,SSW,202,1.1,-999.0,59,-99.99,,,0.00,Acu-Link.com,2013-02-07 00:50:00,
2013-02-06 20:05:00,21.6,9.5,30.08,SSW,202,0.0,-999.0,59,-99.99,,,0.00,Acu-Link.com,2013-02-07 01:05:00,
2013-02-06 20:20:00,21.4,8.6,30.09,SSW,202,0.0,-999.0,57,-99.99,,,0.00,Acu-Link.com,2013-02-07 01:20:00,
2013-02-06 20:36:00,21.4,7.4,30.10,SSW,202,0.0,-999.0,54,-99.99,,,0.00,Acu-Link.com,2013-02-07 01:36:00,
2013-02-06 20:51:00,21.0,7.4,30.11,SSW,202,2.7,-999.0,55,-99.99,,,0.00,Acu-Link.com,2013-02-07 01:51:00,
2013-02-06 21:06:00,20.7,7.9,30.12,SSW,202,2.2,-999.0,57,-99.99,,,0.00,Acu-Link.com,2013-02-07 02:06:00,
2013-02-06 21:21:00,20.5,7.7,30.13,SSW,202,1.7,-999.0,57,-99.99,,,0.00,Acu-Link.com,2013-02-07 02:21:00,
2013-02-06 21:36:00,20.1,7.3,30.13,SSW,202,0.0,-999.0,57,-99.99,,,0.00,Acu-Link.com,2013-02-07 02:36:00,
2013-02-06 21:51:00,19.8,6.7,30.14,SSW,202,0.0,-999.0,56,-99.99,,,0.00,Acu-Link.com,2013-02-07 02:51:00,
2013-02-06 22:06:00,19.0,6.7,30.15,SSW,202,0.0,-999.0,58,-99.99,,,0.00,Acu-Link.com,2013-02-07 03:06:00,
2013-02-06 22:21:00,19.0,5.5,30.15,SSW,202,1.7,-999.0,55,-99.99,,,0.00,Acu-Link.com,2013-02-07 03:21:00,
2013-02-06 22:36:00,18.7,3.6,30.16,SSW,202,1.7,-999.0,51,-99.99,,,0.00,Acu-Link.com,2013-02-07 03:36:00,
2013-02-06 22:51:00,18.3,2.8,30.17,SSW,202,1.1,-999.0,50,-99.99,,,0.00,Acu-Link.com,2013-02-07 03:51:00,
2013-02-06 23:07:00,17.6,2.6,30.17,SSW,202,1.7,-999.0,51,-99.99,,,0.00,Acu-Link.com,2013-02-07 04:07:00,
2013-02-06 23:22:00,17.1,1.7,30.17,SSW,202,1.7,-999.0,50,-99.99,,,0.00,Acu-Link.com,2013-02-07 04:22:00,
2013-02-06 23:37:00,16.7,1.3,30.18,SSW,202,2.7,-999.0,50,-99.99,,,0.00,Acu-Link.com,2013-02-07 04:37:00,
2013-02-06 23:52:00,16.2,2.5,30.19,SSW,202,0.0,-999.0,54,-99.99,,,0.00,Acu-Link.com,2013-02-07 04:52:00,